Location: ??????
(41.3747°N, 22.5491°E)
Time: 15:52:05
(UTC+00:00)

USA 81 - Pass Details

Date: 01 December 2020
Orbit: 783 x 791 km, 85.0° (Epoch: 30 November)

Event Time Altitude Azimuth Distance (km) Brightness Sun altitude
Rises 15:44:40 0° 358° (N) 3,288 7.1 -8.2°
Reaches altitude 10° 15:47:04 10° 2° (N) 2,356 6.3 -8.6°
Maximum altitude 15:52:18 61° 83° (E) 892 4.1 -9.5°
Drops below altitude 10° 15:57:31 10° 164° (SSE) 2,345 6.6 -10.5°
Sets 15:59:53 0° 168° (SSE) 3,270 7.4 -10.9°
